Zurück zum Katalog

IPM 2/BREEZE-M

AktivWissenschaftGEO
NORAD 47242·PAYLOAD·🇷🇺 Russia

Gestartet Dec 14, 2020 von Plesetsk Cosmodrome

Loading…

TLE

AktuellSource: Space-Track

Epoche: Sep 13, 2026, 15:07 UTC

1 47242U 20097A   26256.62995771 -.00000096  00000-0  00000-0 0  9990
2 47242   5.5933  75.6017 0083365 282.1180  77.2099  0.95297799 20114

Verfolge IPM 2/BREEZE-M in Echtzeit mit AllMySat

Download on the App Store